Terminal Aerodrome Forecast
Issued by NWS

Home | Current Version | Previous Version | Text Only | Print | Product List | Glossary On
Versions: 1 2 3 4 5 6 7 8 9 10 11 12 13 14 15 16 17 18 19 20 21 22 23 24 25 26 27 28 29 30 31 32 33 34 35 36 37
560
FTUS42 KCAE 232102 AAA
TAFDNL
TAF AMD
KDNL 232102Z 2321/2418 30008KT P6SM SCT035 BKN050
     FM240000 29015G25KT P6SM SCT035
     FM240800 28011KT P6SM SKC=

USA.gov is the U.S. government's official web portal to all federal, state and local government web resources and services.